Time,TemperatureF,DewpointF,PressureIn,WindDirection,WindDirectionDegrees,WindSpeedMPH,WindSpeedGustMPH,Humidity,HourlyPrecipIn,Conditions,Clouds,dailyrainin,SoftwareType,DateUTC
2013-02-06 00:04:00,47.0,36.3,30.00,NW,308,4.0,8.0,66,0.00,,,0.00,WUHU216DAVISVP2,2013-02-06 07:04:00,
2013-02-06 00:09:00,45.2,35.0,30.00,North,0,0.0,0.0,67,0.00,,,0.00,WUHU216DAVISVP2,2013-02-06 07:09:00,
2013-02-06 00:14:00,43.9,34.8,29.99,North,0,0.0,0.0,70,0.00,,,0.00,WUHU216DAVISVP2,2013-02-06 07:14:00,
2013-02-06 00:19:00,43.5,35.5,29.99,North,0,0.0,0.0,73,0.00,,,0.00,WUHU216DAVISVP2,2013-02-06 07:19:00,
2013-02-06 00:24:00,44.3,36.3,29.99,NW,325,1.0,1.0,73,0.00,,,0.00,WUHU216DAVISVP2,2013-02-06 07:24:00,
2013-02-06 00:29:00,45.8,36.7,30.00,NW,316,3.0,7.0,70,0.00,,,0.00,WUHU216DAVISVP2,2013-02-06 07:29:00,
2013-02-06 00:34:00,46.9,36.6,29.99,NW,317,3.0,5.0,67,0.00,,,0.00,WUHU216DAVISVP2,2013-02-06 07:34:00,
2013-02-06 00:39:00,47.5,36.8,29.99,NW,317,2.0,4.0,66,0.00,,,0.00,WUHU216DAVISVP2,2013-02-06 07:39:00,
2013-02-06 00:45:00,47.8,36.7,29.99,NW,318,3.0,6.0,65,0.00,,,0.00,WUHU216DAVISVP2,2013-02-06 07:45:00,
2013-02-06 00:50:00,48.0,36.9,29.99,NW,324,2.0,4.0,65,0.00,,,0.00,WUHU216DAVISVP2,2013-02-06 07:50:00,
2013-02-06 00:55:00,48.0,36.9,29.99,NW,323,2.0,2.0,65,0.00,,,0.00,WUHU216DAVISVP2,2013-02-06 07:55:00,
2013-02-06 01:00:00,48.1,36.6,29.99,North,0,0.0,0.0,64,0.00,,,0.00,WUHU216DAVISVP2,2013-02-06 08:00:00,
2013-02-06 01:05:00,48.3,36.8,29.99,North,0,0.0,0.0,64,0.00,,,0.00,WUHU216DAVISVP2,2013-02-06 08:05:00,
2013-02-06 01:10:00,48.4,36.9,29.99,North,0,0.0,0.0,64,0.00,,,0.00,WUHU216DAVISVP2,2013-02-06 08:10:00,
2013-02-06 01:15:00,48.4,36.9,29.99,North,0,0.0,0.0,64,0.00,,,0.00,WUHU216DAVISVP2,2013-02-06 08:15:00,
2013-02-06 01:20:00,48.5,36.6,29.99,North,0,0.0,0.0,63,0.00,,,0.00,WUHU216DAVISVP2,2013-02-06 08:20:00,
2013-02-06 01:25:00,48.6,36.7,29.99,North,0,0.0,0.0,63,0.00,,,0.00,WUHU216DAVISVP2,2013-02-06 08:25:00,
2013-02-06 01:30:00,48.5,36.6,29.99,North,0,0.0,0.0,63,0.00,,,0.00,WUHU216DAVISVP2,2013-02-06 08:30:00,
2013-02-06 01:35:00,48.3,36.4,29.99,North,0,0.0,0.0,63,0.00,,,0.00,WUHU216DAVISVP2,2013-02-06 08:35:00,
2013-02-06 01:40:00,47.7,35.8,29.99,North,0,0.0,0.0,63,0.00,,,0.00,WUHU216DAVISVP2,2013-02-06 08:40:00,
2013-02-06 01:46:00,46.7,35.3,29.99,North,0,0.0,0.0,64,0.00,,,0.00,WUHU216DAVISVP2,2013-02-06 08:46:00,
2013-02-06 01:51:00,45.6,35.0,29.99,North,0,0.0,0.0,66,0.00,,,0.00,WUHU216DAVISVP2,2013-02-06 08:51:00,
2013-02-06 01:56:00,44.9,35.1,29.98,North,0,0.0,0.0,68,0.00,,,0.00,WUHU216DAVISVP2,2013-02-06 08:56:00,
2013-02-06 02:01:00,44.4,35.3,29.98,North,0,0.0,0.0,70,0.00,,,0.00,WUHU216DAVISVP2,2013-02-06 09:01:00,
2013-02-06 02:06:00,44.2,34.8,29.98,North,0,0.0,0.0,69,0.00,,,0.00,WUHU216DAVISVP2,2013-02-06 09:06:00,
2013-02-06 02:11:00,43.3,33.9,29.98,North,0,0.0,0.0,69,0.00,,,0.00,WUHU216DAVISVP2,2013-02-06 09:11:00,
2013-02-06 02:16:00,41.8,33.8,29.98,North,0,0.0,0.0,73,0.00,,,0.00,WUHU216DAVISVP2,2013-02-06 09:16:00,
2013-02-06 02:21:00,41.3,34.0,29.98,North,0,0.0,0.0,75,0.00,,,0.00,WUHU216DAVISVP2,2013-02-06 09:21:00,
2013-02-06 02:26:00,41.3,34.0,29.98,North,0,0.0,0.0,75,0.00,,,0.00,WUHU216DAVISVP2,2013-02-06 09:26:00,
2013-02-06 02:31:00,41.0,33.7,29.98,North,0,0.0,0.0,75,0.00,,,0.00,WUHU216DAVISVP2,2013-02-06 09:31:00,
2013-02-06 02:36:00,40.3,33.1,29.98,North,0,0.0,0.0,75,0.00,,,0.00,WUHU216DAVISVP2,2013-02-06 09:36:00,
2013-02-06 02:41:00,39.7,33.4,29.98,North,0,0.0,0.0,78,0.00,,,0.00,WUHU216DAVISVP2,2013-02-06 09:41:00,
2013-02-06 02:46:00,39.3,33.0,29.99,North,0,0.0,0.0,78,0.00,,,0.00,WUHU216DAVISVP2,2013-02-06 09:46:00,
2013-02-06 02:52:00,39.2,32.9,29.98,North,0,0.0,0.0,78,0.00,,,0.00,WUHU216DAVISVP2,2013-02-06 09:52:00,
2013-02-06 02:57:00,39.1,33.5,29.98,North,0,0.0,0.0,80,0.00,,,0.00,WUHU216DAVISVP2,2013-02-06 09:57:00,
2013-02-06 03:02:00,39.6,34.3,29.98,North,0,0.0,0.0,81,0.00,,,0.00,WUHU216DAVISVP2,2013-02-06 10:02:00,
2013-02-06 03:07:00,40.1,34.7,29.98,North,0,0.0,0.0,81,0.00,,,0.00,WUHU216DAVISVP2,2013-02-06 10:07:00,
2013-02-06 03:12:00,40.7,35.0,29.98,North,0,0.0,0.0,80,0.00,,,0.00,WUHU216DAVISVP2,2013-02-06 10:12:00,
2013-02-06 03:17:00,41.3,35.9,29.98,North,0,0.0,0.0,81,0.00,,,0.00,WUHU216DAVISVP2,2013-02-06 10:17:00,
2013-02-06 03:22:00,43.1,36.7,29.98,North,0,0.0,0.0,78,0.00,,,0.00,WUHU216DAVISVP2,2013-02-06 10:22:00,
2013-02-06 03:27:00,44.3,36.9,29.98,North,0,0.0,0.0,75,0.00,,,0.00,WUHU216DAVISVP2,2013-02-06 10:27:00,
2013-02-06 03:32:00,44.9,36.8,29.98,North,0,0.0,0.0,73,0.00,,,0.00,WUHU216DAVISVP2,2013-02-06 10:32:00,
2013-02-06 03:37:00,45.3,36.9,29.98,North,0,0.0,0.0,72,0.00,,,0.00,WUHU216DAVISVP2,2013-02-06 10:37:00,
2013-02-06 03:42:00,45.5,37.1,29.98,North,0,0.0,0.0,72,0.00,,,0.00,WUHU216DAVISVP2,2013-02-06 10:42:00,
2013-02-06 03:47:00,45.7,36.9,29.98,North,0,0.0,0.0,71,0.00,,,0.00,WUHU216DAVISVP2,2013-02-06 10:47:00,
2013-02-06 03:52:00,45.8,37.0,29.97,North,0,0.0,0.0,71,0.00,,,0.00,WUHU216DAVISVP2,2013-02-06 10:52:00,
2013-02-06 03:57:00,45.9,37.1,29.97,North,0,0.0,0.0,71,0.00,,,0.00,WUHU216DAVISVP2,2013-02-06 10:57:00,
2013-02-06 04:03:00,45.4,35.5,29.97,North,0,0.0,0.0,68,0.00,,,0.00,WUHU216DAVISVP2,2013-02-06 11:03:00,
2013-02-06 04:08:00,43.2,34.9,29.97,North,0,0.0,0.0,72,0.00,,,0.00,WUHU216DAVISVP2,2013-02-06 11:08:00,
2013-02-06 04:13:00,42.2,35.2,29.97,North,0,0.0,0.0,76,0.00,,,0.00,WUHU216DAVISVP2,2013-02-06 11:13:00,
2013-02-06 04:18:00,41.9,35.3,29.97,North,0,0.0,0.0,77,0.00,,,0.00,WUHU216DAVISVP2,2013-02-06 11:18:00,
2013-02-06 04:23:00,41.7,35.4,29.97,North,0,0.0,0.0,78,0.00,,,0.00,WUHU216DAVISVP2,2013-02-06 11:23:00,
2013-02-06 04:28:00,41.7,35.4,29.97,North,0,0.0,0.0,78,0.00,,,0.00,WUHU216DAVISVP2,2013-02-06 11:28:00,
2013-02-06 04:33:00,41.8,35.8,29.97,North,0,0.0,0.0,79,0.00,,,0.00,WUHU216DAVISVP2,2013-02-06 11:33:00,
2013-02-06 04:38:00,41.5,34.5,29.98,North,0,0.0,0.0,76,0.00,,,0.00,WUHU216DAVISVP2,2013-02-06 11:38:00,
2013-02-06 04:43:00,41.1,34.5,29.98,North,0,0.0,0.0,77,0.00,,,0.00,WUHU216DAVISVP2,2013-02-06 11:43:00,
2013-02-06 04:48:00,40.9,34.6,29.97,North,0,0.0,0.0,78,0.00,,,0.00,WUHU216DAVISVP2,2013-02-06 11:48:00,
2013-02-06 04:53:00,41.0,34.7,29.97,North,0,0.0,0.0,78,0.00,,,0.00,WUHU216DAVISVP2,2013-02-06 11:53:00,
2013-02-06 04:58:00,41.1,34.8,29.98,North,0,0.0,0.0,78,0.00,,,0.00,WUHU216DAVISVP2,2013-02-06 11:58:00,
2013-02-06 05:03:00,41.7,34.4,29.98,North,0,0.0,0.0,75,0.00,,,0.00,WUHU216DAVISVP2,2013-02-06 12:03:00,
2013-02-06 05:08:00,42.6,34.6,29.97,North,0,0.0,0.0,73,0.00,,,0.00,WUHU216DAVISVP2,2013-02-06 12:08:00,
2013-02-06 05:13:00,43.3,35.0,29.97,North,0,0.0,0.0,72,0.00,,,0.00,WUHU216DAVISVP2,2013-02-06 12:13:00,
2013-02-06 05:18:00,43.6,34.9,29.97,North,0,0.0,0.0,71,0.00,,,0.00,WUHU216DAVISVP2,2013-02-06 12:18:00,
2013-02-06 05:24:00,44.0,34.6,29.97,North,0,0.0,0.0,69,0.00,,,0.00,WUHU216DAVISVP2,2013-02-06 12:24:00,
2013-02-06 05:29:00,44.0,34.2,29.97,North,0,0.0,0.0,68,0.00,,,0.00,WUHU216DAVISVP2,2013-02-06 12:29:00,
2013-02-06 05:34:00,43.6,33.5,29.97,North,0,0.0,0.0,67,0.00,,,0.00,WUHU216DAVISVP2,2013-02-06 12:34:00,
2013-02-06 05:39:00,43.0,33.6,29.97,North,0,0.0,0.0,69,0.00,,,0.00,WUHU216DAVISVP2,2013-02-06 12:39:00,
2013-02-06 05:44:00,43.2,33.8,29.97,North,0,0.0,0.0,69,0.00,,,0.00,WUHU216DAVISVP2,2013-02-06 12:44:00,
2013-02-06 05:49:00,43.0,33.2,29.97,North,0,0.0,0.0,68,0.00,,,0.00,WUHU216DAVISVP2,2013-02-06 12:49:00,
2013-02-06 05:54:00,41.8,33.2,29.97,North,0,0.0,0.0,71,0.00,,,0.00,WUHU216DAVISVP2,2013-02-06 12:54:00,
2013-02-06 05:59:00,40.7,33.4,29.97,North,0,0.0,0.0,75,0.00,,,0.00,WUHU216DAVISVP2,2013-02-06 12:59:00,
2013-02-06 06:04:00,40.0,33.7,29.97,North,0,0.0,0.0,78,0.00,,,0.00,WUHU216DAVISVP2,2013-02-06 13:04:00,
2013-02-06 06:09:00,40.7,34.7,29.97,North,0,0.0,0.0,79,0.00,,,0.00,WUHU216DAVISVP2,2013-02-06 13:09:00,
2013-02-06 06:14:00,42.7,35.4,29.97,North,0,0.0,0.0,75,0.00,,,0.00,WUHU216DAVISVP2,2013-02-06 13:14:00,
2013-02-06 06:19:00,43.6,35.9,29.97,North,0,0.0,0.0,74,0.00,,,0.00,WUHU216DAVISVP2,2013-02-06 13:19:00,
2013-02-06 06:24:00,43.6,35.6,29.97,North,0,0.0,0.0,73,0.00,,,0.00,WUHU216DAVISVP2,2013-02-06 13:24:00,
2013-02-06 06:29:00,43.3,35.3,29.97,North,0,0.0,0.0,73,0.00,,,0.00,WUHU216DAVISVP2,2013-02-06 13:29:00,
2013-02-06 06:34:00,43.1,35.1,29.97,North,0,0.0,0.0,73,0.00,,,0.00,WUHU216DAVISVP2,2013-02-06 13:34:00,
2013-02-06 06:39:00,42.4,34.4,29.97,North,0,0.0,0.0,73,0.00,,,0.00,WUHU216DAVISVP2,2013-02-06 13:39:00,
2013-02-06 06:45:00,41.7,33.8,29.97,North,0,0.0,0.0,73,0.00,,,0.00,WUHU216DAVISVP2,2013-02-06 13:45:00,
2013-02-06 06:50:00,41.0,33.7,29.97,North,0,0.0,0.0,75,0.00,,,0.00,WUHU216DAVISVP2,2013-02-06 13:50:00,
2013-02-06 06:55:00,40.4,33.5,29.98,North,0,0.0,0.0,76,0.00,,,0.00,WUHU216DAVISVP2,2013-02-06 13:55:00,
2013-02-06 07:00:00,40.0,33.7,29.98,North,0,0.0,0.0,78,0.00,,,0.00,WUHU216DAVISVP2,2013-02-06 14:00:00,
2013-02-06 07:05:00,39.0,31.8,29.98,North,0,0.0,0.0,75,0.00,,,0.00,WUHU216DAVISVP2,2013-02-06 14:05:00,
2013-02-06 07:10:00,37.6,31.4,29.98,North,0,0.0,0.0,78,0.00,,,0.00,WUHU216DAVISVP2,2013-02-06 14:10:00,
2013-02-06 07:15:00,36.6,31.6,29.98,North,0,0.0,0.0,82,0.00,,,0.00,WUHU216DAVISVP2,2013-02-06 14:15:00,
2013-02-06 07:20:00,36.3,31.6,29.99,North,0,0.0,0.0,83,0.00,,,0.00,WUHU216DAVISVP2,2013-02-06 14:20:00,
2013-02-06 07:25:00,36.2,32.1,29.99,North,0,0.0,0.0,85,0.00,,,0.00,WUHU216DAVISVP2,2013-02-06 14:25:00,
2013-02-06 07:30:00,36.8,32.7,29.99,North,0,0.0,0.0,85,0.00,,,0.00,WUHU216DAVISVP2,2013-02-06 14:30:00,
2013-02-06 07:35:00,36.8,32.1,29.99,North,0,0.0,0.0,83,0.00,,,0.00,WUHU216DAVISVP2,2013-02-06 14:35:00,
2013-02-06 07:40:00,36.9,32.5,29.99,North,0,0.0,0.0,84,0.00,,,0.00,WUHU216DAVISVP2,2013-02-06 14:40:00,
2013-02-06 07:45:00,37.2,32.8,29.99,North,0,0.0,0.0,84,0.00,,,0.00,WUHU216DAVISVP2,2013-02-06 14:45:00,
2013-02-06 07:51:00,37.5,32.8,29.99,North,0,0.0,0.0,83,0.00,,,0.00,WUHU216DAVISVP2,2013-02-06 14:51:00,
2013-02-06 07:56:00,37.7,32.7,29.99,North,0,0.0,0.0,82,0.00,,,0.00,WUHU216DAVISVP2,2013-02-06 14:56:00,
2013-02-06 08:01:00,38.4,34.0,29.99,North,0,0.0,0.0,84,0.00,,,0.00,WUHU216DAVISVP2,2013-02-06 15:01:00,
2013-02-06 08:06:00,40.1,35.9,29.99,North,0,0.0,0.0,85,0.00,,,0.00,WUHU216DAVISVP2,2013-02-06 15:06:00,
2013-02-06 08:11:00,42.1,36.4,30.00,North,0,0.0,0.0,80,0.00,,,0.00,WUHU216DAVISVP2,2013-02-06 15:11:00,
2013-02-06 08:16:00,43.7,37.0,30.00,North,0,0.0,0.0,77,0.00,,,0.00,WUHU216DAVISVP2,2013-02-06 15:16:00,
2013-02-06 08:21:00,44.7,37.0,30.00,North,0,0.0,0.0,74,0.00,,,0.00,WUHU216DAVISVP2,2013-02-06 15:21:00,
2013-02-06 08:26:00,45.3,37.2,30.00,North,0,0.0,0.0,73,0.00,,,0.00,WUHU216DAVISVP2,2013-02-06 15:26:00,
2013-02-06 08:31:00,46.2,37.4,30.00,North,0,0.0,0.0,71,0.00,,,0.00,WUHU216DAVISVP2,2013-02-06 15:31:00,
2013-02-06 08:36:00,47.4,37.5,30.00,North,0,0.0,0.0,68,0.00,,,0.00,WUHU216DAVISVP2,2013-02-06 15:36:00,
2013-02-06 08:42:00,48.8,36.5,30.00,North,0,0.0,0.0,62,0.00,,,0.00,WUHU216DAVISVP2,2013-02-06 15:42:00,
2013-02-06 08:47:00,50.3,36.6,30.00,North,0,0.0,0.0,59,0.00,,,0.00,WUHU216DAVISVP2,2013-02-06 15:47:00,
2013-02-06 08:52:00,51.2,36.1,30.00,North,0,0.0,0.0,56,0.00,,,0.00,WUHU216DAVISVP2,2013-02-06 15:52:00,
2013-02-06 08:57:00,51.3,35.2,30.00,North,0,0.0,0.0,54,0.00,,,0.00,WUHU216DAVISVP2,2013-02-06 15:57:00,
2013-02-06 09:02:00,51.3,34.8,30.00,North,0,0.0,0.0,53,0.00,,,0.00,WUHU216DAVISVP2,2013-02-06 16:02:00,
2013-02-06 09:07:00,51.3,34.8,30.00,North,0,0.0,0.0,53,0.00,,,0.00,WUHU216DAVISVP2,2013-02-06 16:07:00,
2013-02-06 09:12:00,51.4,35.8,30.00,North,0,0.0,0.0,55,0.00,,,0.00,WUHU216DAVISVP2,2013-02-06 16:12:00,
2013-02-06 09:17:00,51.6,35.5,30.00,North,0,0.0,0.0,54,0.00,,,0.00,WUHU216DAVISVP2,2013-02-06 16:17:00,
2013-02-06 09:22:00,51.9,35.3,30.00,North,0,0.0,0.0,53,0.00,,,0.00,WUHU216DAVISVP2,2013-02-06 16:22:00,
2013-02-06 09:27:00,52.1,35.0,30.00,North,0,0.0,0.0,52,0.00,,,0.00,WUHU216DAVISVP2,2013-02-06 16:27:00,
2013-02-06 09:32:00,52.5,34.4,30.00,North,0,0.0,0.0,50,0.00,,,0.00,WUHU216DAVISVP2,2013-02-06 16:32:00,
2013-02-06 09:37:00,53.0,34.3,30.00,North,0,0.0,0.0,49,0.00,,,0.00,WUHU216DAVISVP2,2013-02-06 16:37:00,
2013-02-06 09:42:00,53.6,34.9,30.00,SW,224,4.0,6.0,49,0.00,,,0.00,WUHU216DAVISVP2,2013-02-06 16:42:00,
2013-02-06 09:47:00,53.9,34.6,30.00,SW,228,3.0,4.0,48,0.00,,,0.00,WUHU216DAVISVP2,2013-02-06 16:47:00,
2013-02-06 09:52:00,54.4,34.5,30.00,South,181,4.0,7.0,47,0.00,,,0.00,WUHU216DAVISVP2,2013-02-06 16:52:00,
2013-02-06 09:57:00,54.4,34.0,30.00,SSW,196,3.0,4.0,46,0.00,,,0.00,WUHU216DAVISVP2,2013-02-06 16:57:00,
2013-02-06 10:03:00,54.7,33.7,30.00,South,184,5.0,10.0,45,0.00,,,0.00,WUHU216DAVISVP2,2013-02-06 17:03:00,
2013-02-06 10:08:00,54.5,34.1,30.00,SSW,201,4.0,7.0,46,0.00,,,0.00,WUHU216DAVISVP2,2013-02-06 17:08:00,
2013-02-06 10:13:00,54.5,34.1,30.00,SSE,165,5.0,10.0,46,0.00,,,0.00,WUHU216DAVISVP2,2013-02-06 17:13:00,
2013-02-06 10:18:00,54.4,34.5,30.01,South,171,4.0,8.0,47,0.00,,,0.00,WUHU216DAVISVP2,2013-02-06 17:18:00,
2013-02-06 10:23:00,54.1,34.2,30.00,South,185,4.0,7.0,47,0.00,,,0.00,WUHU216DAVISVP2,2013-02-06 17:23:00,
2013-02-06 10:28:00,53.7,34.4,30.00,SSW,203,4.0,6.0,48,0.00,,,0.00,WUHU216DAVISVP2,2013-02-06 17:28:00,
2013-02-06 10:33:00,53.8,34.0,30.00,SSE,165,4.0,6.0,47,0.00,,,0.00,WUHU216DAVISVP2,2013-02-06 17:33:00,
2013-02-06 10:38:00,53.7,34.4,30.01,SSE,159,4.0,7.0,48,0.00,,,0.00,WUHU216DAVISVP2,2013-02-06 17:38:00,
2013-02-06 10:43:00,53.7,33.9,30.01,South,171,4.0,7.0,47,0.00,,,0.00,WUHU216DAVISVP2,2013-02-06 17:43:00,
2013-02-06 10:48:00,53.9,34.1,30.01,SSE,159,3.0,8.0,47,0.00,,,0.00,WUHU216DAVISVP2,2013-02-06 17:48:00,
2013-02-06 10:53:00,54.0,33.0,30.01,SW,222,3.0,5.0,45,0.00,,,0.00,WUHU216DAVISVP2,2013-02-06 17:53:00,
2013-02-06 10:58:00,54.9,35.0,30.01,SSW,199,4.0,7.0,47,0.00,,,0.00,WUHU216DAVISVP2,2013-02-06 17:58:00,
2013-02-06 11:03:00,55.0,33.4,30.01,SW,220,5.0,8.0,44,0.00,,,0.00,WUHU216DAVISVP2,2013-02-06 18:03:00,
2013-02-06 11:08:00,55.0,32.2,30.01,SSW,206,5.0,9.0,42,0.00,,,0.00,WUHU216DAVISVP2,2013-02-06 18:08:00,
2013-02-06 11:14:00,54.8,32.0,30.01,SW,214,4.0,8.0,42,0.00,,,0.00,WUHU216DAVISVP2,2013-02-06 18:14:00,
2013-02-06 11:19:00,55.5,32.6,30.00,South,180,4.0,8.0,42,0.00,,,0.00,WUHU216DAVISVP2,2013-02-06 18:19:00,
2013-02-06 11:24:00,56.0,33.1,30.00,SSW,198,6.0,10.0,42,0.00,,,0.00,WUHU216DAVISVP2,2013-02-06 18:24:00,
2013-02-06 11:29:00,56.5,32.3,30.00,SSW,203,6.0,13.0,40,0.00,,,0.00,WUHU216DAVISVP2,2013-02-06 18:29:00,
2013-02-06 11:34:00,57.0,32.7,30.00,South,186,6.0,15.0,40,0.00,,,0.00,WUHU216DAVISVP2,2013-02-06 18:34:00,
2013-02-06 11:39:00,56.6,32.4,29.99,SSW,195,6.0,10.0,40,0.00,,,0.00,WUHU216DAVISVP2,2013-02-06 18:39:00,
2013-02-06 11:44:00,56.5,31.6,30.00,South,190,5.0,11.0,39,0.00,,,0.00,WUHU216DAVISVP2,2013-02-06 18:44:00,
2013-02-06 11:49:00,56.1,30.6,30.00,SSW,200,7.0,12.0,38,0.00,,,0.00,WUHU216DAVISVP2,2013-02-06 18:49:00,
2013-02-06 11:54:00,56.3,30.8,29.99,SW,232,6.0,10.0,38,0.00,,,0.00,WUHU216DAVISVP2,2013-02-06 18:54:00,
2013-02-06 11:59:00,56.4,31.6,30.00,SW,236,6.0,11.0,39,0.00,,,0.00,WUHU216DAVISVP2,2013-02-06 18:59:00,
2013-02-06 12:04:00,56.2,30.7,29.99,SW,220,7.0,13.0,38,0.00,,,0.00,WUHU216DAVISVP2,2013-02-06 19:04:00,
2013-02-06 12:09:00,56.9,31.4,29.99,SSW,205,6.0,14.0,38,0.00,,,0.00,WUHU216DAVISVP2,2013-02-06 19:09:00,
2013-02-06 12:14:00,57.0,30.8,29.99,SW,218,7.0,13.0,37,0.00,,,0.00,WUHU216DAVISVP2,2013-02-06 19:14:00,
2013-02-06 12:19:00,56.3,29.5,29.99,SSW,212,6.0,11.0,36,0.00,,,0.00,WUHU216DAVISVP2,2013-02-06 19:19:00,
2013-02-06 12:24:00,56.2,30.1,29.99,SSW,207,5.0,8.0,37,0.00,,,0.00,WUHU216DAVISVP2,2013-02-06 19:24:00,
2013-02-06 12:29:00,56.9,31.4,29.98,SSW,203,4.0,8.0,38,0.00,,,0.00,WUHU216DAVISVP2,2013-02-06 19:29:00,
2013-02-06 12:35:00,57.4,29.7,29.98,SW,226,6.0,12.0,35,0.00,,,0.00,WUHU216DAVISVP2,2013-02-06 19:35:00,
2013-02-06 12:40:00,58.0,30.3,29.98,WSW,237,6.0,11.0,35,0.00,,,0.00,WUHU216DAVISVP2,2013-02-06 19:40:00,
2013-02-06 12:45:00,58.0,29.6,29.97,WSW,252,5.0,10.0,34,0.00,,,0.00,WUHU216DAVISVP2,2013-02-06 19:45:00,
2013-02-06 12:50:00,58.6,28.6,29.97,SW,217,7.0,11.0,32,0.00,,,0.00,WUHU216DAVISVP2,2013-02-06 19:50:00,
2013-02-06 12:55:00,58.3,29.8,29.97,SSW,213,6.0,10.0,34,0.00,,,0.00,WUHU216DAVISVP2,2013-02-06 19:55:00,
2013-02-06 13:00:00,58.4,29.9,29.97,SW,216,5.0,11.0,34,0.00,,,0.00,WUHU216DAVISVP2,2013-02-06 20:00:00,
2013-02-06 13:05:00,59.2,29.1,29.96,WSW,248,6.0,11.0,32,0.00,,,0.00,WUHU216DAVISVP2,2013-02-06 20:05:00,
2013-02-06 13:10:00,59.8,30.4,29.96,West,259,7.0,12.0,33,0.00,,,0.00,WUHU216DAVISVP2,2013-02-06 20:10:00,
2013-02-06 13:15:00,59.4,30.1,29.96,West,266,6.0,13.0,33,0.00,,,0.00,WUHU216DAVISVP2,2013-02-06 20:15:00,
2013-02-06 13:20:00,59.4,30.1,29.96,West,263,7.0,12.0,33,0.00,,,0.00,WUHU216DAVISVP2,2013-02-06 20:20:00,
2013-02-06 13:25:00,59.6,30.2,29.95,SW,225,5.0,9.0,33,0.00,,,0.00,WUHU216DAVISVP2,2013-02-06 20:25:00,
2013-02-06 13:30:00,59.4,30.1,29.96,WSW,246,6.0,10.0,33,0.00,,,0.00,WUHU216DAVISVP2,2013-02-06 20:30:00,
2013-02-06 13:36:00,58.6,30.1,29.95,SW,231,5.0,9.0,34,0.00,,,0.00,WUHU216DAVISVP2,2013-02-06 20:36:00,
2013-02-06 13:41:00,58.6,29.4,29.95,West,259,5.0,9.0,33,0.00,,,0.00,WUHU216DAVISVP2,2013-02-06 20:41:00,
2013-02-06 13:46:00,59.4,30.1,29.95,SW,219,6.0,11.0,33,0.00,,,0.00,WUHU216DAVISVP2,2013-02-06 20:46:00,
2013-02-06 13:51:00,59.1,29.0,29.95,SW,221,5.0,10.0,32,0.00,,,0.00,WUHU216DAVISVP2,2013-02-06 20:51:00,
2013-02-06 13:56:00,59.1,29.0,29.95,SW,231,7.0,13.0,32,0.00,,,0.00,WUHU216DAVISVP2,2013-02-06 20:56:00,
2013-02-06 14:01:00,59.3,29.2,29.94,WSW,245,6.0,13.0,32,0.00,,,0.00,WUHU216DAVISVP2,2013-02-06 21:01:00,
2013-02-06 14:06:00,59.8,30.4,29.94,WSW,244,6.0,9.0,33,0.00,,,0.00,WUHU216DAVISVP2,2013-02-06 21:06:00,
2013-02-06 14:11:00,60.5,29.5,29.94,WSW,244,4.0,7.0,31,0.00,,,0.00,WUHU216DAVISVP2,2013-02-06 21:11:00,
2013-02-06 14:16:00,61.1,29.2,29.94,WSW,248,7.0,12.0,30,0.00,,,0.00,WUHU216DAVISVP2,2013-02-06 21:16:00,
2013-02-06 14:21:00,60.3,27.7,29.94,WSW,242,8.0,14.0,29,0.00,,,0.00,WUHU216DAVISVP2,2013-02-06 21:21:00,
2013-02-06 14:26:00,59.8,28.1,29.94,WSW,238,7.0,14.0,30,0.00,,,0.00,WUHU216DAVISVP2,2013-02-06 21:26:00,
2013-02-06 14:32:00,59.3,27.6,29.94,SW,224,6.0,11.0,30,0.00,,,0.00,WUHU216DAVISVP2,2013-02-06 21:32:00,
2013-02-06 14:37:00,59.1,28.3,29.94,WSW,254,5.0,8.0,31,0.00,,,0.00,WUHU216DAVISVP2,2013-02-06 21:37:00,
2013-02-06 14:42:00,60.0,29.0,29.94,WSW,254,6.0,8.0,31,0.00,,,0.00,WUHU216DAVISVP2,2013-02-06 21:42:00,
2013-02-06 14:47:00,61.4,29.5,29.94,WSW,248,5.0,8.0,30,0.00,,,0.00,WUHU216DAVISVP2,2013-02-06 21:47:00,
2013-02-06 14:52:00,62.0,30.0,29.94,West,268,5.0,11.0,30,0.00,,,0.00,WUHU216DAVISVP2,2013-02-06 21:52:00,
2013-02-06 14:57:00,61.8,29.8,29.94,West,259,6.0,14.0,30,0.00,,,0.00,WUHU216DAVISVP2,2013-02-06 21:57:00,
2013-02-06 15:02:00,62.0,30.0,29.94,WSW,254,5.0,11.0,30,0.00,,,0.00,WUHU216DAVISVP2,2013-02-06 22:02:00,
2013-02-06 15:07:00,62.1,29.3,29.94,SW,216,6.0,14.0,29,0.00,,,0.00,WUHU216DAVISVP2,2013-02-06 22:07:00,
2013-02-06 15:12:00,62.1,29.3,29.94,WSW,245,5.0,12.0,29,0.00,,,0.00,WUHU216DAVISVP2,2013-02-06 22:12:00,
2013-02-06 15:17:00,62.0,27.4,29.94,SW,220,6.0,10.0,27,0.00,,,0.00,WUHU216DAVISVP2,2013-02-06 22:17:00,
2013-02-06 15:22:00,62.1,27.5,29.94,WSW,248,8.0,15.0,27,0.00,,,0.00,WUHU216DAVISVP2,2013-02-06 22:22:00,
2013-02-06 15:27:00,61.8,29.0,29.94,West,268,7.0,13.0,29,0.00,,,0.00,WUHU216DAVISVP2,2013-02-06 22:27:00,
2013-02-06 15:32:00,61.6,29.6,29.94,West,274,7.0,13.0,30,0.00,,,0.00,WUHU216DAVISVP2,2013-02-06 22:32:00,
2013-02-06 15:37:00,61.6,28.8,29.94,West,263,10.0,16.0,29,0.00,,,0.00,WUHU216DAVISVP2,2013-02-06 22:37:00,
2013-02-06 15:43:00,61.6,28.8,29.94,West,272,9.0,17.0,29,0.00,,,0.00,WUHU216DAVISVP2,2013-02-06 22:43:00,
2013-02-06 15:48:00,61.5,27.9,29.94,West,272,8.0,15.0,28,0.00,,,0.00,WUHU216DAVISVP2,2013-02-06 22:48:00,
2013-02-06 15:53:00,60.9,29.0,29.94,West,261,8.0,19.0,30,0.00,,,0.00,WUHU216DAVISVP2,2013-02-06 22:53:00,
2013-02-06 15:58:00,60.9,29.8,29.94,WSW,257,6.0,12.0,31,0.00,,,0.00,WUHU216DAVISVP2,2013-02-06 22:58:00,
2013-02-06 16:03:00,61.1,30.8,29.95,WSW,255,10.0,17.0,32,0.00,,,0.00,WUHU216DAVISVP2,2013-02-06 23:03:00,
2013-02-06 16:08:00,60.8,30.5,29.94,West,266,10.0,20.0,32,0.00,,,0.00,WUHU216DAVISVP2,2013-02-06 23:08:00,
2013-02-06 16:13:00,60.0,30.6,29.95,West,278,7.0,13.0,33,0.00,,,0.00,WUHU216DAVISVP2,2013-02-06 23:13:00,
2013-02-06 16:18:00,59.6,30.2,29.95,West,276,7.0,14.0,33,0.00,,,0.00,WUHU216DAVISVP2,2013-02-06 23:18:00,
2013-02-06 16:23:00,59.1,29.8,29.95,West,279,6.0,13.0,33,0.00,,,0.00,WUHU216DAVISVP2,2013-02-06 23:23:00,
2013-02-06 16:28:00,58.6,29.4,29.95,West,277,7.0,14.0,33,0.00,,,0.00,WUHU216DAVISVP2,2013-02-06 23:28:00,
2013-02-06 16:33:00,58.2,29.0,29.95,WNW,286,7.0,13.0,33,0.00,,,0.00,WUHU216DAVISVP2,2013-02-06 23:33:00,
2013-02-06 16:38:00,58.2,30.5,29.96,West,273,7.0,13.0,35,0.00,,,0.00,WUHU216DAVISVP2,2013-02-06 23:38:00,
2013-02-06 16:43:00,58.5,32.1,29.96,West,274,7.0,13.0,37,0.00,,,0.00,WUHU216DAVISVP2,2013-02-06 23:43:00,
2013-02-06 16:48:00,58.6,31.5,29.96,West,280,7.0,12.0,36,0.00,,,0.00,WUHU216DAVISVP2,2013-02-06 23:48:00,
2013-02-06 16:53:00,58.5,32.1,29.96,WNW,282,7.0,12.0,37,0.00,,,0.00,WUHU216DAVISVP2,2013-02-06 23:53:00,
2013-02-06 16:58:00,57.9,31.6,29.96,West,275,7.0,11.0,37,0.00,,,0.00,WUHU216DAVISVP2,2013-02-06 23:58:00,
2013-02-06 17:04:00,57.6,32.0,29.96,WNW,282,7.0,13.0,38,0.00,,,0.00,WUHU216DAVISVP2,2013-02-07 00:04:00,
2013-02-06 17:09:00,57.9,32.2,29.96,WNW,283,6.0,13.0,38,0.00,,,0.00,WUHU216DAVISVP2,2013-02-07 00:09:00,
2013-02-06 17:14:00,58.4,32.0,29.96,West,273,5.0,9.0,37,0.00,,,0.00,WUHU216DAVISVP2,2013-02-07 00:14:00,
2013-02-06 17:19:00,58.4,32.7,29.96,WNW,287,4.0,9.0,38,0.00,,,0.00,WUHU216DAVISVP2,2013-02-07 00:19:00,
2013-02-06 17:24:00,57.9,33.6,29.96,WNW,299,5.0,9.0,40,0.00,,,0.00,WUHU216DAVISVP2,2013-02-07 00:24:00,
2013-02-06 17:29:00,57.1,32.8,29.97,WNW,300,6.0,12.0,40,0.00,,,0.00,WUHU216DAVISVP2,2013-02-07 00:29:00,
2013-02-06 17:34:00,56.5,32.9,29.97,WNW,295,7.0,12.0,41,0.00,,,0.00,WUHU216DAVISVP2,2013-02-07 00:34:00,
2013-02-06 17:39:00,56.2,32.6,29.97,WNW,301,7.0,13.0,41,0.00,,,0.00,WUHU216DAVISVP2,2013-02-07 00:39:00,
2013-02-06 17:44:00,55.5,32.6,29.97,WNW,299,5.0,9.0,42,0.00,,,0.00,WUHU216DAVISVP2,2013-02-07 00:44:00,
2013-02-06 17:49:00,55.1,32.9,29.97,NW,308,5.0,9.0,43,0.00,,,0.00,WUHU216DAVISVP2,2013-02-07 00:49:00,
2013-02-06 17:54:00,54.8,32.6,29.98,NW,312,5.0,8.0,43,0.00,,,0.00,WUHU216DAVISVP2,2013-02-07 00:54:00,
2013-02-06 17:59:00,54.5,32.9,29.98,WNW,300,5.0,10.0,44,0.00,,,0.00,WUHU216DAVISVP2,2013-02-07 00:59:00,
2013-02-06 18:04:00,54.3,32.7,29.98,NW,305,4.0,8.0,44,0.00,,,0.00,WUHU216DAVISVP2,2013-02-07 01:04:00,
2013-02-06 18:09:00,54.0,33.0,29.98,WNW,302,4.0,9.0,45,0.00,,,0.00,WUHU216DAVISVP2,2013-02-07 01:09:00,
2013-02-06 18:14:00,53.8,32.8,29.98,NW,309,5.0,10.0,45,0.00,,,0.00,WUHU216DAVISVP2,2013-02-07 01:14:00,
2013-02-06 18:19:00,53.7,32.8,29.98,WNW,302,5.0,10.0,45,0.00,,,0.00,WUHU216DAVISVP2,2013-02-07 01:19:00,
2013-02-06 18:24:00,53.5,32.6,29.98,NW,308,5.0,8.0,45,0.00,,,0.00,WUHU216DAVISVP2,2013-02-07 01:24:00,
2013-02-06 18:30:00,53.4,33.0,29.99,WNW,295,5.0,11.0,46,0.00,,,0.00,WUHU216DAVISVP2,2013-02-07 01:30:00,
2013-02-06 18:35:00,53.2,32.9,29.99,WNW,302,4.0,7.0,46,0.00,,,0.00,WUHU216DAVISVP2,2013-02-07 01:35:00,
2013-02-06 18:40:00,53.0,32.7,29.99,WNW,303,4.0,8.0,46,0.00,,,0.00,WUHU216DAVISVP2,2013-02-07 01:40:00,
2013-02-06 18:45:00,52.7,32.4,30.00,WNW,302,3.0,7.0,46,0.00,,,0.00,WUHU216DAVISVP2,2013-02-07 01:45:00,
2013-02-06 18:50:00,52.4,32.7,30.00,WNW,297,3.0,6.0,47,0.00,,,0.00,WUHU216DAVISVP2,2013-02-07 01:50:00,
2013-02-06 18:55:00,52.3,32.0,30.00,WNW,294,4.0,8.0,46,0.00,,,0.00,WUHU216DAVISVP2,2013-02-07 01:55:00,
2013-02-06 19:00:00,52.3,32.0,30.00,WNW,299,5.0,9.0,46,0.00,,,0.00,WUHU216DAVISVP2,2013-02-07 02:00:00,
2013-02-06 19:05:00,52.2,31.9,30.01,WNW,298,4.0,10.0,46,0.00,,,0.00,WUHU216DAVISVP2,2013-02-07 02:05:00,
2013-02-06 19:10:00,52.0,31.8,30.01,WNW,292,4.0,7.0,46,0.00,,,0.00,WUHU216DAVISVP2,2013-02-07 02:10:00,
2013-02-06 19:15:00,51.8,32.1,30.01,WNW,295,3.0,7.0,47,0.00,,,0.00,WUHU216DAVISVP2,2013-02-07 02:15:00,
2013-02-06 19:20:00,51.7,32.0,30.02,WNW,297,3.0,6.0,47,0.00,,,0.00,WUHU216DAVISVP2,2013-02-07 02:20:00,
2013-02-06 19:25:00,51.4,32.3,30.02,WNW,296,3.0,6.0,48,0.00,,,0.00,WUHU216DAVISVP2,2013-02-07 02:25:00,
2013-02-06 19:31:00,51.2,32.1,30.02,WNW,286,5.0,11.0,48,0.00,,,0.00,WUHU216DAVISVP2,2013-02-07 02:31:00,
2013-02-06 19:36:00,51.2,32.1,30.02,West,280,5.0,9.0,48,0.00,,,0.00,WUHU216DAVISVP2,2013-02-07 02:36:00,
2013-02-06 19:41:00,51.0,31.9,30.02,WNW,282,4.0,7.0,48,0.00,,,0.00,WUHU216DAVISVP2,2013-02-07 02:41:00,
2013-02-06 19:46:00,51.0,31.9,30.02,WNW,284,4.0,9.0,48,0.00,,,0.00,WUHU216DAVISVP2,2013-02-07 02:46:00,
2013-02-06 19:51:00,50.8,31.8,30.03,WNW,293,4.0,6.0,48,0.00,,,0.00,WUHU216DAVISVP2,2013-02-07 02:51:00,
2013-02-06 19:56:00,50.8,31.8,30.03,WNW,286,6.0,10.0,48,0.00,,,0.00,WUHU216DAVISVP2,2013-02-07 02:56:00,
2013-02-06 20:01:00,50.7,31.7,30.03,WNW,285,4.0,6.0,48,0.00,,,0.00,WUHU216DAVISVP2,2013-02-07 03:01:00,
2013-02-06 20:06:00,50.7,32.2,30.03,WNW,284,4.0,9.0,49,0.00,,,0.00,WUHU216DAVISVP2,2013-02-07 03:06:00,
2013-02-06 20:11:00,50.5,32.0,30.03,WNW,283,5.0,8.0,49,0.00,,,0.00,WUHU216DAVISVP2,2013-02-07 03:11:00,
2013-02-06 20:16:00,50.3,31.8,30.03,WNW,282,4.0,7.0,49,0.00,,,0.00,WUHU216DAVISVP2,2013-02-07 03:16:00,
2013-02-06 20:22:00,50.0,32.1,30.04,WNW,292,4.0,6.0,50,0.00,,,0.00,WUHU216DAVISVP2,2013-02-07 03:22:00,
2013-02-06 20:27:00,49.5,31.6,30.04,NW,304,3.0,5.0,50,0.00,,,0.00,WUHU216DAVISVP2,2013-02-07 03:27:00,
2013-02-06 20:32:00,48.8,31.5,30.04,NW,316,2.0,4.0,51,0.00,,,0.00,WUHU216DAVISVP2,2013-02-07 03:32:00,
2013-02-06 20:37:00,48.2,30.9,30.04,NW,306,3.0,6.0,51,0.00,,,0.00,WUHU216DAVISVP2,2013-02-07 03:37:00,
2013-02-06 20:42:00,48.0,31.2,30.04,NW,305,3.0,5.0,52,0.00,,,0.00,WUHU216DAVISVP2,2013-02-07 03:42:00,
2013-02-06 20:47:00,47.9,31.1,30.04,NW,314,3.0,7.0,52,0.00,,,0.00,WUHU216DAVISVP2,2013-02-07 03:47:00,
2013-02-06 20:52:00,47.9,31.6,30.04,NW,310,3.0,8.0,53,0.00,,,0.00,WUHU216DAVISVP2,2013-02-07 03:52:00,
2013-02-06 20:57:00,48.0,32.2,30.04,NW,309,4.0,8.0,54,0.00,,,0.00,WUHU216DAVISVP2,2013-02-07 03:57:00,
2013-02-06 21:02:00,48.0,31.7,30.04,NW,314,3.0,7.0,53,0.00,,,0.00,WUHU216DAVISVP2,2013-02-07 04:02:00,
2013-02-06 21:07:00,47.5,31.7,30.05,NW,309,3.0,5.0,54,0.00,,,0.00,WUHU216DAVISVP2,2013-02-07 04:07:00,
2013-02-06 21:12:00,47.2,31.9,30.05,North,0,0.0,0.0,55,0.00,,,0.00,WUHU216DAVISVP2,2013-02-07 04:12:00,
2013-02-06 21:17:00,46.8,32.0,30.05,North,0,0.0,0.0,56,0.00,,,0.00,WUHU216DAVISVP2,2013-02-07 04:17:00,
2013-02-06 21:22:00,46.5,32.1,30.05,North,0,0.0,0.0,57,0.00,,,0.00,WUHU216DAVISVP2,2013-02-07 04:22:00,
2013-02-06 21:28:00,46.4,32.0,30.05,North,0,0.0,0.0,57,0.00,,,0.00,WUHU216DAVISVP2,2013-02-07 04:28:00,
2013-02-06 21:33:00,46.4,32.5,30.05,NW,306,3.0,4.0,58,0.00,,,0.00,WUHU216DAVISVP2,2013-02-07 04:33:00,
2013-02-06 21:38:00,46.3,32.4,30.05,North,0,0.0,0.0,58,0.00,,,0.00,WUHU216DAVISVP2,2013-02-07 04:38:00,
2013-02-06 21:43:00,46.2,32.7,30.05,NW,305,2.0,2.0,59,0.00,,,0.00,WUHU216DAVISVP2,2013-02-07 04:43:00,
2013-02-06 21:48:00,46.1,32.6,30.05,NW,307,2.0,3.0,59,0.00,,,0.00,WUHU216DAVISVP2,2013-02-07 04:48:00,
2013-02-06 21:53:00,45.9,32.4,30.05,North,0,0.0,0.0,59,0.00,,,0.00,WUHU216DAVISVP2,2013-02-07 04:53:00,
2013-02-06 21:58:00,45.9,32.9,30.05,NW,309,1.0,1.0,60,0.00,,,0.00,WUHU216DAVISVP2,2013-02-07 04:58:00,
2013-02-06 22:03:00,46.0,33.0,30.06,NW,310,3.0,5.0,60,0.00,,,0.00,WUHU216DAVISVP2,2013-02-07 05:03:00,
2013-02-06 22:08:00,46.2,33.2,30.06,NW,311,3.0,5.0,60,0.00,,,0.00,WUHU216DAVISVP2,2013-02-07 05:08:00,
2013-02-06 22:13:00,46.2,33.2,30.06,NW,313,3.0,5.0,60,0.00,,,0.00,WUHU216DAVISVP2,2013-02-07 05:13:00,
2013-02-06 22:18:00,46.3,32.8,30.07,NW,309,3.0,5.0,59,0.00,,,0.00,WUHU216DAVISVP2,2013-02-07 05:18:00,
2013-02-06 22:23:00,46.4,32.9,30.07,NW,309,4.0,6.0,59,0.00,,,0.00,WUHU216DAVISVP2,2013-02-07 05:23:00,
2013-02-06 22:28:00,46.4,32.9,30.07,WNW,303,3.0,5.0,59,0.00,,,0.00,WUHU216DAVISVP2,2013-02-07 05:28:00,
2013-02-06 22:33:00,46.5,33.0,30.07,WNW,300,3.0,6.0,59,0.00,,,0.00,WUHU216DAVISVP2,2013-02-07 05:33:00,
2013-02-06 22:38:00,46.6,33.1,30.07,NW,306,3.0,5.0,59,0.00,,,0.00,WUHU216DAVISVP2,2013-02-07 05:38:00,
2013-02-06 22:43:00,46.5,33.0,30.07,NW,304,4.0,7.0,59,0.00,,,0.00,WUHU216DAVISVP2,2013-02-07 05:43:00,
2013-02-06 22:48:00,46.4,32.9,30.07,North,0,0.0,0.0,59,0.00,,,0.00,WUHU216DAVISVP2,2013-02-07 05:48:00,
2013-02-06 22:54:00,46.3,33.2,30.08,North,0,0.0,0.0,60,0.00,,,0.00,WUHU216DAVISVP2,2013-02-07 05:54:00,
2013-02-06 22:59:00,46.3,33.2,30.08,North,0,0.0,0.0,60,0.00,,,0.00,WUHU216DAVISVP2,2013-02-07 05:59:00,
2013-02-06 23:04:00,46.2,33.2,30.08,North,0,0.0,0.0,60,0.00,,,0.00,WUHU216DAVISVP2,2013-02-07 06:04:00,
2013-02-06 23:09:00,46.1,33.1,30.08,North,0,0.0,0.0,60,0.00,,,0.00,WUHU216DAVISVP2,2013-02-07 06:09:00,
2013-02-06 23:14:00,45.9,32.9,30.08,North,0,0.0,0.0,60,0.00,,,0.00,WUHU216DAVISVP2,2013-02-07 06:14:00,
2013-02-06 23:19:00,45.8,32.8,30.08,North,0,0.0,0.0,60,0.00,,,0.00,WUHU216DAVISVP2,2013-02-07 06:19:00,
2013-02-06 23:24:00,45.8,32.8,30.08,North,0,0.0,0.0,60,0.00,,,0.00,WUHU216DAVISVP2,2013-02-07 06:24:00,
2013-02-06 23:29:00,45.6,33.0,30.08,North,0,0.0,0.0,61,0.00,,,0.00,WUHU216DAVISVP2,2013-02-07 06:29:00,
2013-02-06 23:34:00,45.3,32.7,30.08,North,0,0.0,0.0,61,0.00,,,0.00,WUHU216DAVISVP2,2013-02-07 06:34:00,
2013-02-06 23:39:00,45.0,32.8,30.08,North,0,0.0,0.0,62,0.00,,,0.00,WUHU216DAVISVP2,2013-02-07 06:39:00,
2013-02-06 23:44:00,44.6,32.5,30.08,North,0,0.0,0.0,62,0.00,,,0.00,WUHU216DAVISVP2,2013-02-07 06:44:00,
2013-02-06 23:49:00,44.2,32.5,30.08,North,0,0.0,0.0,63,0.00,,,0.00,WUHU216DAVISVP2,2013-02-07 06:49:00,
2013-02-06 23:54:00,43.8,32.5,30.08,North,0,0.0,0.0,64,0.00,,,0.00,WUHU216DAVISVP2,2013-02-07 06:54:00,
2013-02-06 23:59:00,43.7,32.8,30.08,North,0,0.0,0.0,65,0.00,,,0.00,WUHU216DAVISVP2,2013-02-07 06:59:00,